EHI
0 0 0 0 0 0 0 0 0 0 0 0 0 0 0 0 0 0 0 0 0 0 0 0 0 0 0 0 0 0 0 0 0 0 0 0 0 0 0 0 0 0 0
0 0 0 0 0 0 0 0 0 0 0 0 0 0 0 0 0 0 0 0 0 0 0 0 0 0 0 0 0 0 0 0 0 0 0 0 0 0 0 0 0 0 0
0 0 0 0 0 0 0 0 0 0 0 0 0 0 0 0 0 0 0 0 0 0 0 0 0 0 0 0 0 0 0 0 0 0 0 0 0 0 0 0 0 0 0
0 0 0 0 0 0 0 0 0 0 0 0 0 0 0 0 0 0 0 0 0 0 0 0 0 0 0 0 0 0 0 0 0 0 0 0 0 0 0 0 0 0 0
0 0 0 0 0 0 0 0 0 0 0 0 0 0 0 0 0 0 0 0 0 0 0 0 0 0 0 0 0 0 0 0 0 0 0 0 0 0 0 0 0 0 0
0 0 0 0 0 0 0 0 0 0 0 0 0 0 0 0 0 0 0 0 0 0 0 0 0 0 0 0 0 0 0 0 0 0 0 0 0 0 0 0 0 0 0
0 0 0 0 0 0 0 0 0 0 0 0 0 0 0 0 0 0 0 0 0 0 0 0 0 0 0 0 0 0 0 0 0 0 0 0 0 0 0 0 0 0 0
0 0 0 0 0 0 0 0 0 0 0 0 0 0 0 0 0 0 0 0 0 0 0 0 0 0 0 0 0 0 0 0 0 0 0 0 0 0 0 0 0 0 0
0 0 0 0 0 0 0 0 0 0 0 0 0 0 0 0 0 0 0 0 0 0 0 0 0 0 0 0 0 0 0 0 0 0 0 0 0 0 0 0 0 0 0
0 0 0 0 0 0 0 0 0 0 0 0 0 0 0 0 0 0 0 0 0 0 0 0 0 0 0 0 0 0 0 0 0 0 0 0 0 0 0 0 0 0 0
0 0 0 0 0 0 0 0 0 0 0 0 0 0 0 0 0 0 0 0 0 0 0 0 0 0 0 0 0 0 0 0 0 0 0 0 0 0 0 0 0 0 0
0 0 0 0 0 0 0 0 0 0 0 0 0 0 0 0 0 0 0 0 0 0 0 0 0 0 0 0 0 0 0 0 0 0 0 0 0 0 0 0 0 0 0
0 0 0 0 0 0 0 0 0 0 0 0 0 0 0 0 0 0 0 0 0 0 0 0 0 0 0 0 0 0 0 0 0 0 0 0 0 0 0 0 0 0 0
0 0 0 0 0 0 0 0 0 0 0 0 0 0 0 0 0 0 0 0 0 0 0 0 0 0 0 0 0 0 0 0 0 0 0 0 0 0 0 0 0 0 0
0 0 0 0 0 0 0 0 0 0 0 0 0 0 0 0 0 0 0 0 0 0 0 0 0 0 0 0 0 0 0 0 0 0 0 0 0 0 0 0 0 0 0
0 0 0 0 0 0 0 0 0 0 0 0 0 0 0 0 0 0 0 0 0 0 0 0 0 0 0 0 0 0 0 0 0 0 0 0 0 0 0 0 0 0 0
0 0 0 0 0 0 0 0 0 0 0 0 0 0 0 0 0 0 0 0 0 0 0 0 0 0 0 0 0 0 0 0 0 0 0 0 0 0 0 0 0 0 0
0 0 0 0 0 0 0 0 0 0 0 0 0 0 0 0 0 0 0 0 0 0 0 0 0 0 0 0 0 0 0 0 0 0 0 0 0 0 0 0 0 0 0
0 0 0 0 0 0 0 0 0 0 0 0 0 0 0 0 0 0 0 0 0 0 0 0 0 0 0 0 0 0 0 0 0 0 0 0 0 0 0 0 0 0 0
0 0 0 0 0 0 0 0 0 0 0 0 0 0 0 0 0 0 0 0 0 0 0 0 0 0 0 0 0 0 0 0 0 0 0 0 0 0 0 0 0 0 0
0 0 0 0 0 0 0 0 0 0 0 0 0 0 0 0 0 0 0 0 0 0 0 0 0 0 0 0 0 0 0 0 0 0 0 0 0 0 0 0 0 0 0
0 0 0 0 0 0 0 0 0 0 0 0 0 0 0 0 0 0 0 0 0 0 0 0 0 0 0 0 0 0 0 0 0 0 0 0 0 0 0 0 0 0 0
0 0 0 0 0 0 0 0 0 0 0 0 0 0 0 0 0 0 0 0 0 0 0 0 0 0 0 0 0 0 0 0 0 0 0 0 0 0 0 0 0 0 0
0 0 0 0 0 0 0 0 0 0 0 0 0 0 0 0 0 0 0 0 0 0 0 0 0 0 0 0 0 0 0 0 0 0 0 0 0 0 0 0 0 0 0
0 0 0 0 0 0 0 0 0 0 0 0 0 0 0 0 0 0 0 0 0 0 0 0 0 0 0 0 0 0 0 0 0 0 0 0 0 0 0 0 0 0 0
0 0 0 0 0 0 0 0 0 0 0 0 0 0 0 0 0 0 0 0 0 0 0 0 0 0 0 0 0 0 0 0 0 0 0 0 0 0 0 0 0 0 0
Wind_Speed
5 4 4 4 4 3 3 3 3 2 3 3 3 3 3 3 3 3 4 4 4 4 4 4 5 4 3 3 3 3 4 4 6 5 4 4 5 5 5 5 6 7 6
5 4 4 4 3 3 3 3 3 3 3 3 3 3 3 3 3 4 4 4 5 5 5 5 5 3 4 3 3 4 4 4 5 7 5 5 6 6 6 7 6 6 7
5 5 4 4 4 4 4 3 3 3 2 2 3 3 3 4 4 4 4 4 5 5 5 5 5 4 5 4 4 4 3 4 4 5 6 5 5 5 6 7 7 7 7
5 5 5 5 5 5 4 3 3 3 3 3 3 3 3 3 4 3 4 4 4 4 4 4 4 5 5 4 4 4 4 4 4 5 5 5 5 5 5 6 6 6 7
5 5 5 5 4 4 4 3 3 3 3 3 3 3 3 3 3 3 3 4 3 3 3 3 4 4 4 4 4 4 4 4 4 5 5 5 5 5 5 5 7 7 8
6 6 5 4 4 4 4 3 3 3 3 3 3 3 3 2 2 4 3 3 3 4 4 3 3 3 3 5 6 5 5 5 5 5 5 6 7 6 6 6 7 7 7
6 5 5 5 5 4 4 4 4 4 4 4 3 3 3 3 3 4 3 3 3 4 4 3 3 2 3 4 5 6 6 7 7 7 7 8 8 7 7 8 8 8 9
6 6 5 5 5 5 5 5 5 4 4 4 4 4 3 3 4 4 4 3 3 3 3 4 4 4 4 4 4 5 5 5 6 7 7 8 7 7 7 8 9 9 10
6 6 6 6 6 6 6 5 5 4 4 4 3 4 4 3 4 4 4 3 2 3 3 3 4 4 4 4 4 5 6 5 5 7 8 9 9 9 7 5 6 6 8
6 5 5 6 6 6 6 5 4 4 4 4 4 4 4 3 4 4 4 2 3 3 3 3 4 5 5 5 5 5 6 6 5 5 6 7 7 7 8 6 6 6 6
4 4 5 6 6 5 4 4 4 4 4 4 4 3 4 3 4 5 5 3 3 3 3 3 3 5 6 5 5 5 7 6 5 5 5 5 5 5 5 5 5 6 7
4 4 4 4 4 4 4 4 4 4 4 4 3 3 3 3 3 4 6 5 4 4 4 3 3 5 5 6 5 6 7 5 4 4 5 5 5 5 5 6 7 7 8
4 4 3 3 3 4 4 4 4 4 4 4 3 3 3 2 3 5 5 6 5 4 3 4 5 5 5 5 5 5 4 3 4 4 5 5 5 5 5 5 6 7 8
5 4 3 4 4 3 3 4 4 4 4 4 4 4 3 2 2 2 3 3 4 4 3 3 4 5 4 4 3 3 3 3 4 5 5 5 5 5 5 5 5 5 6
5 4 4 4 4 4 4 3 4 4 4 4 4 4 4 4 4 4 2 2 2 2 1 2 2 2 3 3 3 3 3 3 4 4 5 5 5 5 5 4 4 5 6
5 5 4 4 3 3 3 2 3 4 4 5 5 4 3 4 3 4 4 3 3 2 1 2 3 3 3 3 3 3 3 4 4 4 5 5 5 5 6 5 5 5 7
5 5 4 4 4 4 4 4 3 2 3 4 4 5 4 4 4 4 4 3 3 2 2 3 3 3 3 3 3 4 4 4 4 4 5 5 5 5 5 5 5 6 7
5 4 4 4 4 4 4 4 3 3 3 2 3 5 5 5 5 4 4 3 2 2 3 3 4 3 3 4 4 4 4 4 4 5 5 5 5 5 6 6 6 7 7
4 4 3 3 3 3 3 3 3 3 3 3 2 3 4 4 5 4 3 3 3 3 3 4 4 4 4 4 4 4 5 5 5 5 5 5 5 5 6 6 6 8 8
3 4 3 3 3 3 3 3 3 3 3 3 3 3 2 2 3 3 3 3 4 4 4 4 4 4 4 4 4 4 4 5 5 5 5 6 5 5 6 7 7 7 7
3 3 4 4 4 4 4 4 4 4 4 4 4 4 5 3 4 4 4 4 5 5 4 4 4 4 4 4 4 5 6 5 5 5 5 6 6 6 6 6 7 7 7
3 3 4 4 4 4 4 4 4 4 4 4 3 3 6 4 4 4 4 5 5 5 5 5 5 5 5 5 5 5 6 6 6 6 6 6 6 6 6 6 7 7 7
3 3 3 3 3 4 4 4 4 4 4 4 4 3 4 4 5 5 5 5 4 4 4 5 5 5 5 5 5 6 7 7 6 6 6 6 6 6 6 7 8 8 8
4 4 4 3 3 4 4 4 4 4 4 4 4 4 5 5 5 6 5 5 4 5 4 5 5 7 8 7 6 6 7 7 7 7 8 8 8 7 7 7 8 8 8
3 4 4 4 4 4 4 4 4 5 5 5 5 5 5 5 5 6 5 5 5 5 6 5 5 6 8 9 8 7 8 10 9 6 6 7 8 9 8 8 7 8 8
3 3 3 3 3 4 4 4 4 5 5 5 5 5 5 5 6 5 5 4 4 5 5 5 6 7 8 8 9 9 10 10 9 9 7 6 7 7 8 7 8 8 8
Wind_Direction
209 209 211 212 211 212 213 217 218 213 206 210 212 206 206 211 210 207 213 216 221 230 234 230 228 224 224 227 228 236 246 249 262 277 280 288 289 292 297 292 289 290 290
205 204 205 204 202 205 211 219 217 216 214 210 211 205 206 214 215 213 218 221 224 231 233 232 233 226 229 233 232 239 244 246 256 272 281 284 285 289 294 291 289 288 287
200 200 198 198 200 204 206 206 208 210 209 206 208 209 208 212 214 217 221 226 230 234 236 232 231 226 232 236 241 245 249 253 256 265 276 282 286 291 294 290 288 288 286
199 201 203 205 205 204 200 198 202 205 204 206 211 213 212 216 218 218 223 228 233 243 242 237 236 233 236 240 242 248 253 255 257 263 271 280 284 291 289 291 293 292 291
200 204 211 209 203 199 198 198 199 202 205 208 208 212 212 217 222 215 218 225 234 245 245 240 242 245 250 250 250 251 250 253 258 262 269 279 283 290 288 293 292 299 293
205 209 205 200 196 195 197 195 194 200 204 202 205 210 216 224 211 213 221 221 232 239 246 249 249 245 249 252 256 259 257 249 253 258 265 272 280 286 291 290 293 297 294
205 204 199 197 198 198 192 192 198 202 203 205 208 211 218 222 208 209 214 227 236 243 247 250 250 254 254 255 254 253 253 254 252 257 264 269 278 284 287 286 284 284 284
206 204 199 198 200 197 196 202 205 202 205 210 212 215 220 222 206 210 208 225 240 249 252 252 254 260 257 258 264 265 263 259 260 257 262 271 278 285 282 282 286 285 283
213 211 206 201 200 199 203 206 205 202 206 209 210 212 220 227 212 213 212 225 235 250 256 257 255 261 271 266 265 268 271 270 266 265 273 278 283 287 291 288 286 287 287
219 216 209 204 203 206 208 206 204 203 208 204 209 216 223 231 220 222 221 221 235 250 257 258 258 265 280 272 267 269 271 278 286 283 277 278 277 277 275 267 270 274 283
221 211 206 206 206 207 203 200 200 199 200 207 214 220 226 235 229 222 221 222 231 246 254 259 264 269 276 275 273 269 276 290 286 281 281 280 278 274 272 269 265 262 267
210 208 207 204 199 195 194 198 196 194 198 210 219 229 232 233 234 231 227 230 238 245 253 262 268 270 273 275 272 278 288 289 279 277 276 277 280 281 282 278 272 265 263
205 206 202 194 196 193 194 196 196 198 205 211 216 229 236 231 239 241 238 240 244 252 257 267 275 270 275 273 277 284 284 273 269 270 273 278 284 286 287 285 281 276 273
204 205 195 195 200 196 199 200 203 203 208 213 220 229 235 231 234 237 240 241 243 248 259 265 268 268 273 281 286 280 269 270 270 270 278 285 286 284 281 285 286 291 285
204 203 202 204 202 203 207 210 216 220 219 218 223 222 224 233 234 239 237 236 245 246 263 261 262 266 269 271 272 270 268 266 264 269 277 284 288 290 289 289 282 283 277
199 203 204 204 202 203 200 215 234 239 239 236 242 234 236 244 241 225 227 235 241 221 226 246 250 258 265 269 271 276 268 264 268 271 273 277 282 287 292 295 290 282 281
202 199 200 200 200 200 200 202 209 221 230 233 237 234 235 239 236 231 228 232 220 191 224 249 254 256 264 270 273 278 281 280 276 268 268 272 277 281 284 286 287 287 284
203 198 196 198 201 201 203 205 205 203 209 224 234 236 238 244 248 243 232 212 219 217 239 248 254 258 261 265 267 270 275 280 278 277 274 274 274 276 278 280 281 282 286
200 198 198 198 200 201 199 197 202 208 214 219 229 234 233 245 246 238 218 221 233 238 242 249 255 258 260 262 266 269 270 271 273 276 275 271 269 273 276 279 280 281 279
205 196 189 190 190 192 193 195 202 210 216 220 226 226 211 217 224 228 222 231 239 244 245 249 254 256 259 259 260 262 266 267 268 267 271 271 266 264 269 273 276 280 280
200 195 191 191 195 197 198 204 208 212 220 230 234 227 216 219 227 232 233 233 238 242 245 249 251 252 252 254 256 256 258 261 262 263 266 270 268 266 267 270 273 274 278
195 195 197 201 201 203 208 212 215 220 224 231 239 234 229 230 232 235 240 244 244 243 242 243 248 248 246 246 249 254 256 258 258 260 263 268 270 266 267 269 272 276 277
197 199 203 207 206 204 208 215 219 224 228 231 230 231 230 233 236 240 243 245 246 247 244 240 245 250 248 246 246 246 250 254 255 257 261 267 270 267 265 267 270 276 278
199 201 204 205 206 209 214 218 221 225 229 232 232 232 235 241 245 247 248 247 247 247 245 244 246 248 251 253 251 249 251 255 258 255 255 259 266 267 265 267 270 275 278
199 201 204 207 209 215 221 224 225 226 229 233 235 237 241 244 248 252 250 246 247 250 253 254 252 253 254 256 258 259 260 262 263 259 255 256 261 264 266 269 273 278 279
203 205 208 210 214 216 219 225 230 233 235 239 241 242 243 246 249 251 253 252 253 255 258 258 258 261 264 263 263 266 267 266 264 258 253 255 260 265 268 269 274 277 280